Home > Time Zones > World Clock > Weather > Serbia > Niš > Past weeks

Flag for Serbia Weather past 2 weeks in Niš, Serbia

Now
70 °F

Thunderstorms. Broken clouds.


Feels Like: 70 °F
Forecast: 69 / 94 °F
Wind: 9 mph from South

Location: Nis Airport

Current Time: Aug 3, 2015 at 8:16:07 PM

Latest Report: Aug 3, 2015 at 8:00 PM


Visibility: 5 mi

Pressure: 30.07 "Hg

Humidity: 100%

Dew point: 70 °F

Location of NišLocation

Historic Weather in Niš — Graph

°F

Niš temperature yesterday

Maximum temperature yesterday: 93 °F (at 1:30 PM)
Minimum temperature yesterday: 66 °F (at 6:00 AM)
Average temperature yesterday: 83 °F

Past Weeks' High & Low Weather Summary

 TemperatureHumidityPressure
High99 °F (Jul 20, 4:00 PM)94% (Aug 1, 6:00 AM)30.09 "Hg (Aug 1, 6:00 AM)
Low57 °F (Aug 1, 6:00 AM)16% (Jul 25, 5:30 PM)29.65 "Hg (Jul 27, 6:30 PM)
Average80 °F50%29.89 "Hg
* Reported Jul 19 7:00 PM — Aug 3 7:00 PM, Niš, Weather by CustomWeather, © 2015

Note: Actual official high and low records may vary slightly from our data, if they occured in-between our weather recording intervals... More about our weather records

Advertising

Niš weather history for previous 24 hours

 ConditionsComfort  
Time TempWeatherWind HumidityBarometerVisibility
7:00 PM
Mon, Aug 3
73 °FStrong thunderstorms. Broken clouds.10 mph83%30.04 "Hg2 mi
6:30 PM84 °FThunderstorms. Scattered clouds.6 mph48%29.98 "HgN/A
6:00 PM84 °FThunderstorms. Scattered clouds.5 mph48%29.98 "HgN/A
5:30 PM86 °FThunderstorms. Scattered clouds.7 mph46%29.98 "HgN/A
5:00 PM86 °FThunderstorms. Scattered clouds.6 mph46%29.98 "HgN/A
4:30 PM88 °FThunderstorms. Scattered clouds.9 mph43%29.98 "HgN/A
4:00 PM90 °FThunderstorms. Scattered clouds.12 mph41%29.95 "HgN/A
3:30 PM93 °FThunderstorms. Passing clouds.9 mph36%29.95 "HgN/A
3:00 PM93 °FThunderstorms. Passing clouds.12 mph36%29.95 "HgN/A
2:30 PM93 °FPassing clouds.9 mph36%29.98 "HgN/A
2:00 PM91 °FPassing clouds.9 mph38%29.98 "HgN/A
1:30 PM91 °FPassing clouds.6 mph38%29.98 "HgN/A
1:00 PM91 °FPassing clouds.7 mph38%30.01 "HgN/A
12:30 PM90 °FPassing clouds.7 mph41%30.01 "HgN/A
12:00 PM90 °FSunny.3 mph43%30.01 "Hg10 mi
11:30 AM88 °FPassing clouds.6 mph43%30.04 "HgN/A
11:00 AM86 °FSunny.7 mph46%30.04 "Hg10 mi
10:30 AM86 °FPassing clouds.6 mph46%30.04 "HgN/A
10:00 AM84 °FPassing clouds.6 mph48%30.04 "HgN/A
9:30 AM82 °FPassing clouds.2 mph51%30.07 "HgN/A
9:00 AM81 °FScattered clouds.5 mph54%30.04 "HgN/A
8:30 AM79 °FPassing clouds.9 mph58%30.04 "HgN/A
8:00 AM79 °FPassing clouds.12 mph58%30.04 "HgN/A
7:30 AM77 °FPassing clouds.12 mph61%30.04 "HgN/A
7:00 AM77 °FPassing clouds.8 mph61%30.04 "HgN/A
6:30 AM75 °FSunny.6 mph61%30.04 "Hg10 mi
6:00 AM75 °FPassing clouds.2 mph61%30.04 "HgN/A
5:30 AM75 °FPassing clouds.3 mph61%30.04 "HgN/A
5:00 AM77 °FPassing clouds.3 mph57%30.04 "HgN/A
4:30 AM77 °FPassing clouds.8 mph57%30.01 "HgN/A
4:00 AM77 °FPassing clouds.9 mph57%30.04 "HgN/A
3:30 AM77 °FPassing clouds.7 mph57%30.04 "HgN/A
3:00 AM79 °FPassing clouds.3 mph54%30.04 "HgN/A
2:30 AM77 °FPassing clouds.3 mph61%30.04 "HgN/A
2:00 AM79 °FPassing clouds.5 mph58%30.04 "HgN/A
1:30 AM79 °FPassing clouds.5 mph61%30.04 "HgN/A
1:00 AM82 °FThunderstorms. Passing clouds.9 mph51%30.04 "HgN/A
12:30 AM82 °FThunderstorms. Passing clouds.9 mph51%30.04 "HgN/A
12:00 AM82 °FThunderstorms. Passing clouds.13 mph51%30.04 "HgN/A
11:30 PM
Sun, Aug 2
82 °FPassing clouds.12 mph51%30.04 "HgN/A
11:00 PM82 °FPassing clouds.10 mph51%30.01 "HgN/A
10:30 PM84 °FPassing clouds.14 mph48%30.01 "HgN/A
10:00 PM84 °FPassing clouds.13 mph48%30.01 "HgN/A
9:30 PM84 °FPassing clouds.14 mph51%30.01 "HgN/A
9:00 PM86 °FPassing clouds.12 mph49%29.98 "HgN/A
8:30 PM86 °FPassing clouds.12 mph49%29.98 "HgN/A
8:00 PM86 °FSunny.16 mph49%29.95 "Hg10 mi
Weather by CustomWeather, © 2015

See weather overviewHow to use our weather pages